Location: Newark
(42.9858°N, 0.6717°E)
Time: 23:31:25
(UTC+00:00)

Envisat - Pass Details

Date: 01 November 2019
Orbit: 764 x 766 km, 98.1° (Epoch: 17 November)

Event Time Altitude Azimuth Distance (km) Brightness Sun altitude
Rises 05:28:58 0° 33° (NNE) 3,239 6.6 -11.9°
Reaches altitude 10° 05:32:33 10° 59° (ENE) 2,306 6.3 -11.2°
Maximum altitude 05:35:03 14° 89° (E) 2,057 6.6 -10.8°
Drops below altitude 10° 05:37:32 10° 119° (ESE) 2,298 6.8 -10.3°
Sets 05:41:04 0° 145° (SE) 3,217 7.0 -9.7°
